| time (UTC) | temp C | wind direction | speed KPH | gust KPH | rain 1hr cm | rain 24hr cm | rain mn cm | humidity % | barometer mb |
| 20260906041905 | 21 | 138 | 0.0 | 1.6 | 0.00 | 0.00 | 0.00 | 80 | 1019.3 |
| 20260906041405 | 21 | 138 | 0.0 | 0.0 | 0.00 | 0.00 | 0.00 | 79 | 1019.2 |
| 20260906040904 | 21 | 138 | 3.2 | 8.0 | 0.00 | 0.00 | 0.00 | 79 | 1019.2 |
| 20260906040405 | 21 | 138 | 0.0 | 8.0 | 0.00 | 0.00 | 0.00 | 79 | 1019.2 |
| 20260906035405 | 21 | 138 | 0.0 | 0.0 | 0.00 | 0.00 | 0.00 | 78 | 1019.3 |
| 20260906033905 | 21 | 138 | 0.0 | 0.0 | 0.00 | 0.00 | 0.00 | 78 | 1019.4 |
| 20260906032905 | 21 | 138 | 0.0 | 0.0 | 0.00 | 0.00 | 0.00 | 78 | 1019.5 |
| 20260906032405 | 22 | 138 | 0.0 | 0.0 | 0.00 | 0.00 | 0.00 | 77 | 1019.6 |
| 20260906031905 | 22 | 138 | 0.0 | 0.0 | 0.00 | 0.00 | 0.00 | 77 | 1019.5 |
| 20260906031404 | 22 | 138 | 0.0 | 1.6 | 0.00 | 0.00 | 0.00 | 77 | 1019.6 |
| 20260906030405 | 22 | 138 | 0.0 | 0.0 | 0.00 | 0.00 | 0.00 | 77 | 1019.6 |
| 20260906025905 | 22 | 138 | 3.2 | 8.0 | 0.00 | 0.00 | 0.00 | 77 | 1019.6 |
| 20260906025405 | 22 | 138 | 1.6 | 8.0 | 0.00 | 0.00 | 0.00 | 77 | 1019.7 |
| 20260906024904 | 22 | 138 | 1.6 | 9.7 | 0.00 | 0.00 | 0.00 | 76 | 1019.7 |
| 20260906024404 | 22 | 138 | 0.0 | 9.7 | 0.00 | 0.00 | 0.00 | 76 | 1019.8 |
| 20260906023905 | 22 | 138 | 3.2 | 9.7 | 0.00 | 0.00 | 0.00 | 76 | 1019.8 |
| 20260906023404 | 22 | 138 | 4.8 | 9.7 | 0.00 | 0.00 | 0.00 | 76 | 1019.7 |
| 20260906022905 | 22 | 138 | 3.2 | 9.7 | 0.00 | 0.00 | 0.00 | 75 | 1019.7 |
| 20260906022404 | 22 | 138 | 1.6 | 9.7 | 0.00 | 0.00 | 0.00 | 75 | 1019.7 |
| 20260906020905 | 23 | 138 | 1.6 | 8.0 | 0.00 | 0.00 | 0.00 | 74 | 1019.9 |
| 20260906020404 | 23 | 138 | 3.2 | 8.0 | 0.00 | 0.00 | 0.00 | 74 | 1019.9 |
| 20260906015405 | 23 | 138 | 0.0 | 0.0 | 0.00 | 0.00 | 0.00 | 73 | 1019.9 |
| 20260906014905 | 23 | 138 | 1.6 | 4.8 | 0.00 | 0.00 | 0.00 | 73 | 1020.0 |
| 20260906014405 | 23 | 138 | 6.4 | 11.3 | 0.00 | 0.00 | 0.00 | 73 | 1020.0 |
| 20260906013904 | 23 | 138 | 0.0 | 8.0 | 0.00 | 0.00 | 0.00 | 72 | 1020.1 |
| 20260906013405 | 23 | 138 | 1.6 | 8.0 | 0.00 | 0.00 | 0.00 | 72 | 1020.1 |
| 20260906012904 | 24 | 138 | 0.0 | 9.7 | 0.00 | 0.00 | 0.00 | 72 | 1020.1 |
| 20260906012405 | 24 | 138 | 4.8 | 9.7 | 0.00 | 0.00 | 0.00 | 71 | 1020.0 |
| 20260906011905 | 24 | 138 | 1.6 | 8.0 | 0.00 | 0.00 | 0.00 | 71 | 1020.0 |
| 20260906011404 | 24 | 138 | 0.0 | 8.0 | 0.00 | 0.00 | 0.00 | 71 | 1020.1 |
| 20260906010904 | 24 | 138 | 0.0 | 0.0 | 0.00 | 0.00 | 0.00 | 70 | 1020.1 |
| 20260906010405 | 25 | 138 | 0.0 | 1.6 | 0.00 | 0.00 | 0.00 | 69 | 1020.1 |
| 20260906005904 | 25 | 138 | 3.2 | 9.7 | 0.00 | 0.00 | 0.00 | 69 | 1020.1 |
| 20260906005404 | 25 | 138 | 1.6 | 11.3 | 0.00 | 0.00 | 0.00 | 69 | 1020.2 |
| 20260906004905 | 25 | 138 | 0.0 | 11.3 | 0.00 | 0.00 | 0.00 | 69 | 1020.2 |
| 20260906004404 | 25 | 138 | 3.2 | 8.0 | 0.00 | 0.00 | 0.00 | 69 | 1020.2 |
| 20260906003905 | 25 | 138 | 1.6 | 8.0 | 0.00 | 0.00 | 0.00 | 70 | 1020.2 |
| 20260906003405 | 25 | 138 | 0.0 | 0.0 | 0.00 | 0.00 | 0.00 | 69 | 1020.3 |
| 20260906002404 | 25 | 138 | 0.0 | 4.8 | 0.00 | 0.00 | 0.00 | 69 | 1020.3 |
| 20260906001404 | 25 | 138 | 0.0 | 8.0 | 0.00 | 0.00 | 0.00 | 67 | 1020.3 |
| 20260906000905 | 25 | 138 | 4.8 | 11.3 | 0.00 | 0.00 | 0.00 | 67 | 1020.3 |
| 20260906000404 | 25 | 138 | 0.0 | 0.0 | 0.00 | 0.00 | 0.00 | 67 | 1020.2 |
| 20260905235905 | 25 | 138 | 0.0 | 1.6 | 0.00 | 0.00 | 0.00 | 66 | 1020.2 |
| 20260905235404 | 25 | 138 | 0.0 | 1.6 | 0.00 | 0.00 | 0.00 | 65 | 1020.1 |
| 20260905234904 | 25 | 138 | 0.0 | 1.6 | 0.00 | 0.00 | 0.00 | 65 | 1020.2 |
| 20260905234405 | 25 | 138 | 1.6 | 8.0 | 0.00 | 0.00 | 0.00 | 64 | 1020.2 |
| 20260905233405 | 26 | 138 | 1.6 | 8.0 | 0.00 | 0.00 | 0.00 | 63 | 1020.1 |
| 20260905232904 | 26 | 138 | 0.0 | 1.6 | 0.00 | 0.00 | 0.00 | 63 | 1020.1 |
| 20260905232404 | 26 | 138 | 0.0 | 1.6 | 0.00 | 0.00 | 0.00 | 63 | 1020.0 |
| 20260905231904 | 26 | 138 | 0.0 | 0.0 | 0.00 | 0.00 | 0.00 | 62 | 1020.0 |
| 20260905231404 | 26 | 138 | 0.0 | 0.0 | 0.00 | 0.00 | 0.00 | 62 | 1019.9 |
| 20260905230904 | 26 | 138 | 0.0 | 8.0 | 0.00 | 0.00 | 0.00 | 62 | 1019.8 |
| 20260905230404 | 26 | 138 | 0.0 | 4.8 | 0.00 | 0.00 | 0.00 | 62 | 1019.8 |
| 20260905225904 | 26 | 138 | 1.6 | 8.0 | 0.00 | 0.00 | 0.00 | 62 | 1019.8 |
| 20260905225405 | 26 | 138 | 1.6 | 11.3 | 0.00 | 0.00 | 0.00 | 62 | 1019.8 |
| 20260905224904 | 26 | 138 | 3.2 | 12.9 | 0.00 | 0.00 | 0.00 | 62 | 1019.7 |
| 20260905224404 | 26 | 155 | 1.6 | 11.3 | 0.00 | 0.00 | 0.00 | 62 | 1019.6 |
| 20260905223904 | 26 | 146 | 1.6 | 9.7 | 0.00 | 0.00 | 0.00 | 62 | 1019.5 |
| 20260905223404 | 27 | 146 | 0.0 | 8.0 | 0.00 | 0.00 | 0.00 | 62 | 1019.5 |
| 20260905222904 | 27 | 146 | 8.0 | 11.3 | 0.00 | 0.00 | 0.00 | 62 | 1019.5 |
| 20260905222404 | 27 | 142 | 0.0 | 1.6 | 0.00 | 0.00 | 0.00 | 62 | 1019.4 |
| 20260905221905 | 27 | 131 | 0.0 | 4.8 | 0.00 | 0.00 | 0.00 | 62 | 1019.4 |
| 20260905221405 | 27 | 140 | 1.6 | 9.7 | 0.00 | 0.00 | 0.00 | 62 | 1019.4 |
| 20260905215904 | 27 | 122 | 3.2 | 14.5 | 0.00 | 0.00 | 0.00 | 60 | 1019.2 |
| 20260905215405 | 28 | 99 | 4.8 | 12.9 | 0.00 | 0.00 | 0.00 | 60 | 1019.2 |
| 20260905214904 | 28 | 103 | 8.0 | 16.1 | 0.00 | 0.00 | 0.00 | 60 | 1019.2 |
| 20260905214404 | 28 | 89 | 6.4 | 19.3 | 0.00 | 0.00 | 0.00 | 60 | 1019.2 |
| 20260905213404 | 28 | 97 | 9.7 | 19.3 | 0.00 | 0.00 | 0.00 | 59 | 1019.2 |
| 20260905212404 | 28 | 94 | 4.8 | 16.1 | 0.00 | 0.00 | 0.00 | 57 | 1019.2 |
| 20260905211904 | 28 | 107 | 3.2 | 19.3 | 0.00 | 0.00 | 0.00 | 57 | 1019.1 |
| 20260905211404 | 29 | 96 | 3.2 | 19.3 | 0.00 | 0.00 | 0.00 | 56 | 1019.0 |
| 20260905210906 | 29 | 96 | 1.6 | 11.3 | 0.00 | 0.00 | 0.00 | 55 | 1018.9 |
| 20260905210404 | 29 | 91 | 3.2 | 16.1 | 0.00 | 0.00 | 0.00 | 55 | 1018.9 |
| 20260905205904 | 30 | 123 | 4.8 | 19.3 | 0.00 | 0.00 | 0.00 | 55 | 1018.9 |
| 20260905204904 | 30 | 107 | 0.0 | 8.0 | 0.00 | 0.00 | 0.00 | 54 | 1018.7 |
| 20260905204404 | 30 | 107 | 1.6 | 12.9 | 0.00 | 0.00 | 0.00 | 53 | 1018.6 |
| 20260905203904 | 30 | 113 | 1.6 | 4.8 | 0.00 | 0.00 | 0.00 | 53 | 1018.5 |
| 20260905203404 | 30 | 117 | 0.0 | 9.7 | 0.00 | 0.00 | 0.00 | 51 | 1018.4 |
| 20260905201904 | 31 | 126 | 0.0 | 1.6 | 0.00 | 0.00 | 0.00 | 48 | 1018.2 |
| 20260905200904 | 32 | 170 | 0.0 | 1.6 | 0.00 | 0.00 | 0.00 | 46 | 1018.0 |
| 20260905195904 | 32 | 171 | 0.0 | 0.0 | 0.00 | 0.00 | 0.00 | 45 | 1017.9 |
| 20260905195404 | 32 | 171 | 0.0 | 1.6 | 0.00 | 0.00 | 0.00 | 45 | 1018.0 |
| 20260905194904 | 32 | 192 | 0.0 | 1.6 | 0.00 | 0.00 | 0.00 | 43 | 1017.8 |
| 20260905194404 | 33 | 218 | 0.0 | 3.2 | 0.00 | 0.00 | 0.00 | 42 | 1017.8 |
| 20260905193906 | 33 | 122 | 1.6 | 4.8 | 0.00 | 0.00 | 0.00 | 40 | 1017.7 |
| 20260905193405 | 33 | 94 | 0.0 | 0.0 | 0.00 | 0.00 | 0.00 | 38 | 1017.7 |
| 20260905192904 | 33 | 94 | 0.0 | 0.0 | 0.00 | 0.00 | 0.00 | 37 | 1017.7 |
| 20260905192405 | 33 | 94 | 0.0 | 0.0 | 0.00 | 0.00 | 0.00 | 36 | 1017.6 |
| 20260905191905 | 34 | 94 | 0.0 | 1.6 | 0.00 | 0.00 | 0.00 | 36 | 1017.5 |
| 20260905190905 | 34 | 92 | 0.0 | 1.6 | 0.00 | 0.00 | 0.00 | 35 | 1017.4 |
| 20260905190405 | 35 | 108 | 0.0 | 8.0 | 0.00 | 0.00 | 0.00 | 35 | 1017.4 |
| 20260905185905 | 35 | 100 | 0.0 | 3.2 | 0.00 | 0.00 | 0.00 | 34 | 1017.4 |
| 20260905185406 | 35 | 94 | 0.0 | 9.7 | 0.00 | 0.00 | 0.00 | 34 | 1017.3 |
| 20260905184905 | 35 | 106 | 1.6 | 14.5 | 0.00 | 0.00 | 0.00 | 34 | 1017.3 |
| 20260905184405 | 35 | 101 | 0.0 | 3.2 | 0.00 | 0.00 | 0.00 | 33 | 1017.2 |
| 20260905183905 | 35 | 85 | 3.2 | 12.9 | 0.00 | 0.00 | 0.00 | 33 | 1017.1 |
| 20260905183407 | 35 | 83 | 0.0 | 19.3 | 0.00 | 0.00 | 0.00 | 33 | 1017.1 |
| 20260905182905 | 36 | 68 | 1.6 | 11.3 | 0.00 | 0.00 | 0.00 | 34 | 1017.1 |
| 20260905181905 | 36 | 104 | 3.2 | 12.9 | 0.00 | 0.00 | 0.00 | 33 | 1017.0 |
| 20260905181405 | 36 | 87 | 1.6 | 8.0 | 0.00 | 0.00 | 0.00 | 33 | 1017.0 |
| 20260905180906 | 36 | 107 | 3.2 | 11.3 | 0.00 | 0.00 | 0.00 | 33 | 1016.9 |
| 20260905180405 | 36 | 98 | 3.2 | 11.3 | 0.00 | 0.00 | 0.00 | 33 | 1016.8 |
| 20260905175905 | 36 | 96 | 3.2 | 12.9 | 0.00 | 0.00 | 0.00 | 33 | 1016.8 |
| 20260905175406 | 36 | 101 | 0.0 | 4.8 | 0.00 | 0.00 | 0.00 | 32 | 1016.8 |
| 20260905174406 | 36 | 120 | 1.6 | 8.0 | 0.00 | 0.00 | 0.00 | 32 | 1016.7 |
| 20260905173906 | 37 | 90 | 0.0 | 4.8 | 0.00 | 0.00 | 0.00 | 32 | 1016.7 |
| 20260905173405 | 37 | 101 | 1.6 | 9.7 | 0.00 | 0.00 | 0.00 | 31 | 1016.7 |
| 20260905172405 | 37 | 107 | 1.6 | 9.7 | 0.00 | 0.00 | 0.00 | 31 | 1016.7 |
| 20260905171906 | 37 | 107 | 1.6 | 14.5 | 0.00 | 0.00 | 0.00 | 31 | 1016.7 |
| 20260905171406 | 37 | 131 | 6.4 | 12.9 | 0.00 | 0.00 | 0.00 | 30 | 1016.7 |
| 20260905165405 | 37 | 117 | 0.0 | 12.9 | 0.00 | 0.00 | 0.00 | 28 | 1016.6 |
| 20260905164906 | 37 | 28 | 4.8 | 14.5 | 0.00 | 0.00 | 0.00 | 28 | 1016.5 |
| 20260905164405 | 37 | 44 | 3.2 | 14.5 | 0.00 | 0.00 | 0.00 | 27 | 1016.6 |
| 20260905163405 | 37 | 349 | 0.0 | 11.3 | 0.00 | 0.00 | 0.00 | 27 | 1016.6 |
| 20260905162905 | 37 | 11 | 3.2 | 11.3 | 0.00 | 0.00 | 0.00 | 27 | 1016.6 |
| 20260905162405 | 38 | 92 | 0.0 | 4.8 | 0.00 | 0.00 | 0.00 | 26 | 1016.6 |
| 20260905161906 | 38 | 98 | 4.8 | 8.0 | 0.00 | 0.00 | 0.00 | 26 | 1016.7 |
| 20260905161405 | 37 | 69 | 4.8 | 19.3 | 0.00 | 0.00 | 0.00 | 27 | 1016.8 |
| 20260905160905 | 37 | 12 | 0.0 | 4.8 | 0.00 | 0.00 | 0.00 | 27 | 1016.8 |
| 20260905155906 | 38 | 41 | 4.8 | 19.3 | 0.00 | 0.00 | 0.00 | 27 | 1017.0 |
| 20260905155406 | 38 | 57 | 6.4 | 19.3 | 0.00 | 0.00 | 0.00 | 27 | 1017.0 |
| 20260905154905 | 38 | 30 | 4.8 | 20.9 | 0.00 | 0.00 | 0.00 | 26 | 1017.0 |
| 20260905154406 | 38 | 14 | 8.0 | 19.3 | 0.00 | 0.00 | 0.00 | 26 | 1017.1 |
| 20260905153905 | 38 | 14 | 6.4 | 16.1 | 0.00 | 0.00 | 0.00 | 26 | 1017.0 |
| 20260905152905 | 38 | 10 | 4.8 | 19.3 | 0.00 | 0.00 | 0.00 | 27 | 1017.1 |
| 20260905152405 | 38 | 110 | 1.6 | 12.9 | 0.00 | 0.00 | 0.00 | 26 | 1017.1 |
| 20260905151905 | 37 | 15 | 1.6 | 16.1 | 0.00 | 0.00 | 0.00 | 26 | 1017.1 |
| 20260905150905 | 37 | 18 | 8.0 | 22.5 | 0.00 | 0.00 | 0.00 | 28 | 1017.2 |
| 20260905150405 | 37 | 30 | 4.8 | 12.9 | 0.00 | 0.00 | 0.00 | 29 | 1017.3 |
| 20260905145905 | 37 | 29 | 8.0 | 16.1 | 0.00 | 0.00 | 0.00 | 29 | 1017.4 |
| 20260905145405 | 37 | 57 | 4.8 | 19.3 | 0.00 | 0.00 | 0.00 | 29 | 1017.4 |
| 20260905144905 | 37 | 27 | 3.2 | 14.5 | 0.00 | 0.00 | 0.00 | 29 | 1017.4 |
| 20260905144406 | 37 | 16 | 6.4 | 22.5 | 0.00 | 0.00 | 0.00 | 29 | 1017.5 |
| 20260905143905 | 37 | 19 | 3.2 | 12.9 | 0.00 | 0.00 | 0.00 | 29 | 1017.5 |
| 20260905142906 | 37 | 29 | 4.8 | 14.5 | 0.00 | 0.00 | 0.00 | 28 | 1017.6 |
| 20260905142405 | 36 | 71 | 1.6 | 11.3 | 0.00 | 0.00 | 0.00 | 29 | 1017.6 |
| 20260905141905 | 36 | 48 | 0.0 | 8.0 | 0.00 | 0.00 | 0.00 | 29 | 1017.6 |
| 20260905141405 | 36 | 71 | 0.0 | 4.8 | 0.00 | 0.00 | 0.00 | 30 | 1017.7 |
| 20260905140405 | 36 | 15 | 3.2 | 11.3 | 0.00 | 0.00 | 0.00 | 30 | 1017.9 |
| 20260905135905 | 36 | 37 | 0.0 | 4.8 | 0.00 | 0.00 | 0.00 | 30 | 1018.0 |
| 20260905135405 | 36 | 71 | 4.8 | 12.9 | 0.00 | 0.00 | 0.00 | 30 | 1018.1 |
| 20260905134405 | 37 | 23 | 8.0 | 19.3 | 0.00 | 0.00 | 0.00 | 29 | 1018.2 |
| 20260905133905 | 37 | 30 | 6.4 | 20.9 | 0.00 | 0.00 | 0.00 | 29 | 1018.1 |
| 20260905133405 | 36 | 34 | 3.2 | 14.5 | 0.00 | 0.00 | 0.00 | 29 | 1018.1 |
| 20260905132905 | 36 | 17 | 3.2 | 16.1 | 0.00 | 0.00 | 0.00 | 29 | 1018.1 |
| 20260905132405 | 36 | 21 | 3.2 | 20.9 | 0.00 | 0.00 | 0.00 | 30 | 1018.1 |
| 20260905131905 | 36 | 23 | 8.0 | 20.9 | 0.00 | 0.00 | 0.00 | 29 | 1018.2 |
| 20260905131405 | 36 | 7 | 4.8 | 12.9 | 0.00 | 0.00 | 0.00 | 29 | 1018.3 |
| 20260905130905 | 36 | 354 | 3.2 | 9.7 | 0.00 | 0.00 | 0.00 | 31 | 1018.3 |
| 20260905130405 | 36 | 329 | 3.2 | 12.9 | 0.00 | 0.00 | 0.00 | 31 | 1018.3 |
| 20260905125905 | 36 | 63 | 0.0 | 1.6 | 0.00 | 0.00 | 0.00 | 32 | 1018.4 |
| 20260905125405 | 35 | 63 | 1.6 | 4.8 | 0.00 | 0.00 | 0.00 | 33 | 1018.3 |
| 20260905124905 | 35 | 336 | 0.0 | 1.6 | 0.00 | 0.00 | 0.00 | 34 | 1018.4 |
| 20260905124406 | 35 | 336 | 3.2 | 9.7 | 0.00 | 0.00 | 0.00 | 34 | 1018.4 |
| 20260905123905 | 35 | 333 | 1.6 | 9.7 | 0.00 | 0.00 | 0.00 | 35 | 1018.5 |
| 20260905123405 | 35 | 277 | 3.2 | 11.3 | 0.00 | 0.00 | 0.00 | 37 | 1018.5 |
| 20260905122405 | 34 | 346 | 1.6 | 9.7 | 0.00 | 0.00 | 0.00 | 38 | 1018.5 |
| 20260905121905 | 34 | 346 | 1.6 | 8.0 | 0.00 | 0.00 | 0.00 | 38 | 1018.6 |
| 20260905121405 | 33 | 346 | 0.0 | 1.6 | 0.00 | 0.00 | 0.00 | 39 | 1018.7 |
| 20260905120905 | 34 | 346 | 0.0 | 1.6 | 0.00 | 0.00 | 0.00 | 39 | 1018.7 |
| 20260905120405 | 33 | 346 | 0.0 | 1.6 | 0.00 | 0.00 | 0.00 | 40 | 1018.7 |
| 20260905115905 | 33 | 346 | 0.0 | 4.8 | 0.00 | 0.00 | 0.00 | 41 | 1018.7 |
| 20260905115405 | 33 | 346 | 0.0 | 1.6 | 0.00 | 0.00 | 0.00 | 42 | 1018.8 |
| 20260905114905 | 32 | 346 | 0.0 | 8.0 | 0.00 | 0.00 | 0.00 | 44 | 1018.9 |
| 20260905114405 | 32 | 346 | 0.0 | 11.3 | 0.00 | 0.00 | 0.00 | 43 | 1019.0 |
| 20260905113905 | 32 | 346 | 1.6 | 9.7 | 0.00 | 0.00 | 0.00 | 43 | 1019.1 |
| 20260905113405 | 32 | 346 | 0.0 | 1.6 | 0.00 | 0.00 | 0.00 | 43 | 1019.2 |
| 20260905112905 | 32 | 346 | 0.0 | 1.6 | 0.00 | 0.00 | 0.00 | 43 | 1019.2 |
| 20260905112405 | 31 | 346 | 0.0 | 0.0 | 0.00 | 0.00 | 0.00 | 44 | 1019.1 |
| 20260905111905 | 31 | 346 | 0.0 | 4.8 | 0.00 | 0.00 | 0.00 | 44 | 1019.3 |
| 20260905111405 | 31 | 346 | 1.6 | 4.8 | 0.00 | 0.00 | 0.00 | 45 | 1019.3 |
| 20260905110905 | 31 | 346 | 0.0 | 1.6 | 0.00 | 0.00 | 0.00 | 46 | 1019.4 |
| 20260905110405 | 30 | 346 | 0.0 | 1.6 | 0.00 | 0.00 | 0.00 | 46 | 1019.5 |
| 20260905105905 | 30 | 346 | 0.0 | 4.8 | 0.00 | 0.00 | 0.00 | 48 | 1019.6 |
| 20260905105405 | 30 | 346 | 3.2 | 8.0 | 0.00 | 0.00 | 0.00 | 48 | 1019.7 |
| 20260905104905 | 30 | 342 | 3.2 | 8.0 | 0.00 | 0.00 | 0.00 | 48 | 1019.7 |
| 20260905104405 | 30 | 304 | 0.0 | 1.6 | 0.00 | 0.00 | 0.00 | 50 | 1019.8 |
| 20260905103405 | 29 | 304 | 0.0 | 1.6 | 0.00 | 0.00 | 0.00 | 52 | 1019.8 |
| 20260905102905 | 28 | 304 | 0.0 | 3.2 | 0.00 | 0.00 | 0.00 | 52 | 1019.8 |
| 20260905101405 | 27 | 234 | 0.0 | 4.8 | 0.00 | 0.00 | 0.00 | 58 | 1019.8 |
| 20260905100905 | 26 | 234 | 3.2 | 8.0 | 0.00 | 0.00 | 0.00 | 58 | 1019.8 |
| 20260905100405 | 26 | 313 | 0.0 | 3.2 | 0.00 | 0.00 | 0.00 | 58 | 1019.8 |
| 20260905095905 | 26 | 313 | 1.6 | 4.8 | 0.00 | 0.00 | 0.00 | 61 | 1019.7 |
| 20260905095405 | 26 | 313 | 3.2 | 4.8 | 0.00 | 0.00 | 0.00 | 61 | 1019.7 |
| 20260905094905 | 25 | 313 | 1.6 | 8.0 | 0.00 | 0.00 | 0.00 | 63 | 1019.6 |
| 20260905094405 | 25 | 313 | 3.2 | 4.8 | 0.00 | 0.00 | 0.00 | 65 | 1019.7 |
| 20260905093905 | 24 | 266 | 3.2 | 8.0 | 0.00 | 0.00 | 0.00 | 66 | 1019.7 |
| 20260905093405 | 23 | 249 | 3.2 | 8.0 | 0.00 | 0.00 | 0.00 | 67 | 1019.6 |
| 20260905092905 | 23 | 298 | 4.8 | 9.7 | 0.00 | 0.00 | 0.00 | 67 | 1019.6 |
| 20260905091905 | 23 | 301 | 4.8 | 11.3 | 0.00 | 0.00 | 0.00 | 69 | 1019.5 |
| 20260905091405 | 22 | 355 | 1.6 | 8.0 | 0.00 | 0.00 | 0.00 | 70 | 1019.5 |
| 20260905090905 | 22 | 308 | 3.2 | 8.0 | 0.00 | 0.00 | 0.00 | 72 | 1019.5 |
| 20260905090405 | 22 | 279 | 4.8 | 9.7 | 0.00 | 0.00 | 0.00 | 72 | 1019.4 |
| 20260905085905 | 22 | 301 | 8.0 | 9.7 | 0.00 | 0.00 | 0.00 | 72 | 1019.3 |
| 20260905085405 | 21 | 295 | 4.8 | 11.3 | 0.00 | 0.00 | 0.00 | 73 | 1019.3 |
| 20260905084905 | 21 | 316 | 3.2 | 9.7 | 0.00 | 0.00 | 0.00 | 75 | 1019.3 |
| 20260905084405 | 21 | 316 | 3.2 | 11.3 | 0.00 | 0.00 | 0.00 | 75 | 1019.3 |
| 20260905083905 | 21 | 15 | 1.6 | 8.0 | 0.00 | 0.00 | 0.00 | 75 | 1019.3 |
| 20260905083405 | 21 | 296 | 4.8 | 12.9 | 0.00 | 0.00 | 0.00 | 75 | 1019.3 |
| 20260905082405 | 21 | 296 | 4.8 | 12.9 | 0.00 | 0.00 | 0.00 | 74 | 1019.2 |
| 20260905081405 | 21 | 335 | 4.8 | 9.7 | 0.00 | 0.00 | 0.00 | 73 | 1019.2 |
| 20260905080905 | 21 | 224 | 1.6 | 4.8 | 0.00 | 0.00 | 0.00 | 73 | 1019.2 |
| 20260905080405 | 21 | 318 | 1.6 | 4.8 | 0.00 | 0.00 | 0.00 | 74 | 1019.2 |
| 20260905075905 | 21 | 323 | 1.6 | 4.8 | 0.00 | 0.00 | 0.00 | 74 | 1019.2 |
| 20260905075405 | 21 | 306 | 3.2 | 4.8 | 0.00 | 0.00 | 0.00 | 74 | 1019.1 |
| 20260905074905 | 21 | 344 | 1.6 | 4.8 | 0.00 | 0.00 | 0.00 | 75 | 1019.0 |
| 20260905074405 | 21 | 336 | 4.8 | 8.0 | 0.00 | 0.00 | 0.00 | 74 | 1019.1 |
| 20260905073905 | 21 | 105 | 0.0 | 0.0 | 0.00 | 0.00 | 0.00 | 75 | 1019.0 |
| 20260905073405 | 21 | 105 | 0.0 | 0.0 | 0.00 | 0.00 | 0.00 | 76 | 1018.9 |
| 20260905072905 | 21 | 105 | 0.0 | 0.0 | 0.00 | 0.00 | 0.00 | 76 | 1019.0 |
| 20260905072406 | 20 | 105 | 0.0 | 3.2 | 0.00 | 0.00 | 0.00 | 77 | 1019.1 |
| 20260905071905 | 20 | 105 | 0.0 | 1.6 | 0.00 | 0.00 | 0.00 | 78 | 1019.0 |
| 20260905071405 | 20 | 105 | 0.0 | 0.0 | 0.00 | 0.00 | 0.00 | 79 | 1018.9 |
| 20260905070905 | 20 | 105 | 0.0 | 0.0 | 0.00 | 0.00 | 0.00 | 79 | 1018.7 |
| 20260905070405 | 20 | 105 | 0.0 | 0.0 | 0.00 | 0.00 | 0.00 | 79 | 1018.7 |
| 20260905065905 | 20 | 105 | 0.0 | 0.0 | 0.00 | 0.00 | 0.00 | 79 | 1018.7 |
| 20260905065405 | 19 | 105 | 0.0 | 0.0 | 0.00 | 0.00 | 0.00 | 79 | 1018.7 |
| 20260905064905 | 19 | 105 | 0.0 | 0.0 | 0.00 | 0.00 | 0.00 | 79 | 1018.6 |
| 20260905063905 | 19 | 105 | 0.0 | 0.0 | 0.00 | 0.00 | 0.00 | 79 | 1018.6 |
| 20260905063405 | 19 | 105 | 0.0 | 0.0 | 0.00 | 0.00 | 0.00 | 79 | 1018.5 |
| 20260905062904 | 19 | 105 | 0.0 | 0.0 | 0.00 | 0.00 | 0.00 | 79 | 1018.2 |
| 20260905061905 | 19 | 105 | 0.0 | 0.0 | 0.00 | 0.00 | 0.00 | 78 | 1018.1 |
| 20260905061405 | 20 | 105 | 0.0 | 0.0 | 0.00 | 0.00 | 0.00 | 78 | 1018.0 |
| 20260905060905 | 20 | 105 | 0.0 | 1.6 | 0.00 | 0.00 | 0.00 | 78 | 1018.1 |
| 20260905060405 | 20 | 105 | 0.0 | 0.0 | 0.00 | 0.00 | 0.00 | 78 | 1018.0 |
| 20260905055904 | 20 | 105 | 0.0 | 0.0 | 0.00 | 0.00 | 0.00 | 78 | 1017.9 |
| 20260905054905 | 20 | 105 | 0.0 | 0.0 | 0.00 | 0.00 | 0.00 | 77 | 1017.8 |
| 20260905054404 | 20 | 105 | 0.0 | 0.0 | 0.00 | 0.00 | 0.00 | 77 | 1017.7 |
| 20260905053405 | 20 | 105 | 0.0 | 1.6 | 0.00 | 0.00 | 0.00 | 77 | 1017.7 |
| 20260905052905 | 20 | 105 | 0.0 | 0.0 | 0.00 | 0.00 | 0.00 | 77 | 1017.7 |
| 20260905052405 | 20 | 105 | 0.0 | 0.0 | 0.00 | 0.00 | 0.00 | 77 | 1017.8 |
| 20260905051405 | 20 | 105 | 0.0 | 0.0 | 0.00 | 0.00 | 0.00 | 75 | 1017.6 |
| 20260905050904 | 20 | 105 | 0.0 | 0.0 | 0.00 | 0.00 | 0.00 | 75 | 1017.6 |
| 20260905050405 | 20 | 105 | 0.0 | 0.0 | 0.00 | 0.00 | 0.00 | 75 | 1017.5 |
| 20260905045905 | 20 | 105 | 0.0 | 0.0 | 0.00 | 0.00 | 0.00 | 75 | 1017.6 |
| 20260905044904 | 21 | 105 | 0.0 | 0.0 | 0.00 | 0.00 | 0.00 | 74 | 1017.6 |
| 20260905044405 | 21 | 105 | 0.0 | 0.0 | 0.00 | 0.00 | 0.00 | 74 | 1017.5 |
| 20260905043905 | 21 | 105 | 0.0 | 0.0 | 0.00 | 0.00 | 0.00 | 73 | 1017.4 |
| 20260905043405 | 21 | 105 | 0.0 | 3.2 | 0.00 | 0.00 | 0.00 | 73 | 1017.6 |
| 20260905042905 | 21 | 105 | 1.6 | 3.2 | 0.00 | 0.00 | 0.00 | 72 | 1017.5 |
| 20260905042404 | 21 | 105 | 0.0 | 0.0 | 0.00 | 0.00 | 0.00 | 72 | 1017.5 |